Baia Mare, Romania

8:21 PM EEST on April 30, 2017 (GMT +0300)
Tautii Magheraus

Weather History for LRBM - October, 2013

Change the Weather History Date:

Friday, October 18, 2013

  Actual Average Record
Temperature  
Mean Temperature 44 °F -  
Max Temperature 50 °F - - ()
Min Temperature 39 °F - - ()
Degree Days  
Heating Degree Days 20    
Moisture  
Dew Point 45 °F    
Average Humidity 96    
Maximum Humidity 100    
Minimum Humidity 87    
Precipitation  
Precipitation 0.00 in - - ()
Sea Level Pressure  
Sea Level Pressure 29.93 in    
Wind  
Wind Speed 2 mph ()    
Max Wind Speed 9 mph    
Max Gust Speed -    
Visibility 2.3 miles    
Events Fog , Rain    
T = Trace of Precipitation, MM = Missing Value Source: Averaged Metar Reports

Daily Weather History Graph

Daily Weather History Graph

Search for Another Location

Airport or City:

Trip Planner

Search our weather history database for the weather conditions in past years. The results will help you decide how hot, cold, wet, or windy it might be!

Date:

Astronomy

Oct. 18, 2013 Rise Set
Actual Time 7:49 AM EEST 6:32 PM EEST
Civil Twilight 7:18 AM EEST 7:03 PM EEST
Nautical Twilight 6:42 AM EEST 7:39 PM EEST
Astronomical Twilight 6:06 AM EEST 8:15 PM EEST
Moon 6:10 PM EEST (10/18) 7:03 AM EEST (10/18)
Length of Visible Light 11h 45m
Length of Day
10h 43m
Full, 100% of the Moon is Illuminated
Oct 18
Full
Oct 19
Full
Oct 27
Last Quarter
Nov 3
New
Nov 10
First Quarter

Hourly Weather History & Observations

Time (EEST) Temp. Windchill Dew Point Humidity Pressure Visibility Wind Dir Wind Speed Gust Speed Precip Events Conditions
12:00 AM 50.0 °F - 50.0 °F 100% 29.89 in 3.1 mi WSW 2.3 mph - N/A   Scattered Clouds
1:00 AM 48.2 °F - 48.2 °F 100% 29.89 in 0.8 mi Calm Calm - N/A   Scattered Clouds
2:00 AM 46.4 °F - 44.6 °F 93% 29.89 in 1.1 mi Variable 2.3 mph - N/A Fog Fog
3:00 AM 44.6 °F - 42.8 °F 93% 29.89 in 0.3 mi NNW 2.3 mph - N/A Fog Fog
4:00 AM 44.6 °F - 44.6 °F 100% 29.89 in - Calm Calm - N/A   Scattered Clouds
5:00 AM 42.8 °F - 42.8 °F 100% 29.89 in 1.0 mi Variable 2.3 mph - N/A   Partly Cloudy
5:30 AM 42.8 °F - 41.0 °F 93% 29.89 in 0.6 mi Calm Calm - N/A   Partly Cloudy
6:00 AM 41.0 °F - 41.0 °F 100% 29.89 in 0.2 mi Calm Calm - N/A Fog Fog
6:30 AM 41.0 °F - 39.2 °F 93% 29.89 in 0.3 mi NW 2.3 mph - N/A Fog Fog
7:00 AM 41.0 °F - 39.2 °F 93% 29.92 in 0.2 mi Variable 2.3 mph - N/A Fog Fog
7:30 AM 39.2 °F - 39.2 °F 100% 29.92 in 0.1 mi Variable 2.3 mph - N/A Fog Fog
8:00 AM 39.2 °F - 39.2 °F 100% 29.92 in 0.1 mi Calm Calm - N/A Fog Fog
8:30 AM 39.2 °F - 39.2 °F 100% 29.92 in 0.2 mi East 2.3 mph - N/A Fog Fog
9:00 AM 41.0 °F 38.0 °F 41.0 °F 100% 29.92 in 0.7 mi East 4.6 mph - N/A   Scattered Clouds
9:30 AM 44.6 °F - 44.6 °F 100% 29.92 in 1.0 mi Calm Calm - N/A   Scattered Clouds
10:00 AM 44.6 °F - 44.6 °F 100% 29.92 in 1.6 mi SE 2.3 mph - N/A   Scattered Clouds
10:30 AM 46.4 °F 44.3 °F 46.4 °F 100% 29.92 in 1.7 mi ESE 4.6 mph - N/A   Scattered Clouds
11:00 AM 46.4 °F 44.3 °F 46.4 °F 100% 29.92 in 2.8 mi ESE 4.6 mph - N/A   Mostly Cloudy
11:30 AM 48.2 °F - 46.4 °F 93% 29.92 in 2.8 mi SE 2.3 mph - N/A   Mostly Cloudy
12:00 PM 48.2 °F - 46.4 °F 93% 29.92 in 3.1 mi Variable 2.3 mph - N/A   Mostly Cloudy
12:30 PM 48.2 °F - 46.4 °F 93% 29.92 in 3.1 mi Calm Calm - N/A   Mostly Cloudy
1:00 PM 48.2 °F - 46.4 °F 93% 29.92 in 2.8 mi Variable 2.3 mph - N/A Rain Light Rain
1:30 PM 48.2 °F - 46.4 °F 93% 29.92 in - Variable 2.3 mph - N/A Rain Light Rain
2:00 PM 48.2 °F - 46.4 °F 93% 29.92 in - Variable 2.3 mph - N/A Rain Light Rain
2:30 PM 48.2 °F - 48.2 °F 100% 29.92 in - West 4.6 mph - N/A Rain Light Rain
3:00 PM 50.0 °F - 48.2 °F 94% 29.92 in 3.1 mi West 4.6 mph - N/A Rain Light Rain
3:30 PM 50.0 °F - 48.2 °F 94% 29.92 in 5.0 mi West 6.9 mph - N/A   Mostly Cloudy
4:00 PM 50.0 °F - 48.2 °F 94% 29.92 in 6.2 mi West 9.2 mph - N/A   Mostly Cloudy
4:30 PM 50.0 °F - 48.2 °F 94% 29.95 in 6.2 mi West 6.9 mph - N/A   Mostly Cloudy
5:00 PM 50.0 °F - 46.4 °F 87% 29.95 in 6.2 mi West 6.9 mph - N/A   Mostly Cloudy
5:30 PM 50.0 °F - 48.2 °F 94% 29.95 in 6.2 mi West 4.6 mph - N/A   Mostly Cloudy
6:00 PM 50.0 °F - 48.2 °F 94% 29.95 in 6.2 mi West 6.9 mph - N/A   Mostly Cloudy
6:30 PM 48.2 °F - 46.4 °F 93% 29.95 in 6.2 mi West 6.9 mph - N/A   Mostly Cloudy
7:00 PM 46.4 °F 44.3 °F 44.6 °F 93% 29.98 in 6.2 mi West 4.6 mph - N/A   Scattered Clouds
7:30 PM 44.6 °F 42.2 °F 42.8 °F 93% 29.98 in 1.4 mi WSW 4.6 mph - N/A   Mostly Cloudy
8:00 PM 44.6 °F - 42.8 °F 93% 29.98 in 1.2 mi Variable 2.3 mph - N/A   Scattered Clouds
8:30 PM 42.8 °F - 42.8 °F 100% 30.01 in 0.1 mi Calm Calm - N/A Fog Fog
9:00 PM 42.8 °F - 41.0 °F 93% 30.01 in 0.3 mi Variable 2.3 mph - N/A Fog Fog
10:00 PM 44.6 °F - 44.6 °F 100% 30.04 in 0.9 mi Variable 2.3 mph - N/A   Scattered Clouds
11:00 PM 42.8 °F - 42.8 °F 100% 30.04 in 0.7 mi Calm Calm - N/A Fog Fog